AA8FM-13 Weather Reports


time (UTC)temp
C
wind
direction
speed
KPH
gust
KPH
rain 1hr
cm
rain 24hr
cm
rain mn
cm
humidity
%
barometer
mb
20260504050526 8 248 0.0 0.0 0.00 0.00 0.00 63 1012.0
20260504050022 8 250 0.0 0.0 0.00 0.00 0.00 64 1011.7
20260504045519 8 254 0.0 0.0 0.00 0.00 0.00 65 1012.0
20260504045015 8 253 0.0 0.0 0.00 0.00 0.00 65 1012.0
20260504044513 8 249 0.0 0.0 0.00 0.00 0.00 65 1012.0
20260504044009 8 256 0.0 0.0 0.00 0.00 0.00 64 1012.0
20260504043506 9 256 0.0 0.0 0.00 0.00 0.00 62 1012.0
20260504043004 10 242 0.0 0.0 0.00 0.00 0.00 64 1011.9
20260504042500 10 230 0.0 0.0 0.00 0.00 0.00 59 1011.9
20260504041957 10 228 0.0 0.0 0.00 0.00 0.00 61 1011.9
20260504041453 10 235 0.0 0.0 0.00 0.00 0.00 65 1012.1
20260504040949 10 233 0.0 0.0 0.00 0.00 0.00 65 1012.0
20260504040447 10 269 0.0 0.0 0.00 0.00 0.00 65 1012.0
20260504035943 9 179 0.0 0.0 0.00 0.00 0.00 64 1012.1
20260504035441 9 247 0.0 0.0 0.00 0.00 0.00 69 1012.0
20260504034937 9 244 0.0 0.0 0.00 0.00 0.00 69 1011.9
20260504034435 8 269 0.0 0.0 0.00 0.00 0.00 69 1012.1
20260504033931 8 249 0.0 0.0 0.00 0.00 0.00 78 1011.9
20260504033429 8 246 0.0 0.0 0.00 0.00 0.00 78 1012.1
20260504032926 8 258 0.0 0.0 0.00 0.00 0.00 74 1012.1
20260504032423 8 254 0.0 0.0 0.00 0.00 0.00 78 1011.9
20260504031920 8 251 0.0 0.0 0.00 0.00 0.00 78 1012.2
20260504031417 7 254 0.0 0.0 0.00 0.00 0.00 77 1012.1
20260504030913 7 254 0.0 0.0 0.00 0.00 0.00 78 1012.1
20260504030410 7 238 0.0 0.0 0.00 0.00 0.00 78 1012.1
20260504025906 7 256 0.0 0.0 0.00 0.00 0.00 73 1012.0
20260504025403 7 265 0.0 0.0 0.00 0.00 0.00 74 1012.1
20260504024900 7 269 0.0 0.0 0.00 0.00 0.00 76 1011.9
20260504024356 7 253 0.0 0.0 0.00 0.00 0.00 74 1012.1
20260504023854 7 253 0.0 0.0 0.00 0.00 0.00 71 1012.2
20260504023350 7 264 0.0 0.0 0.00 0.00 0.00 68 1012.4
20260504022846 7 267 0.0 0.0 0.00 0.00 0.00 69 1012.2
20260504022343 7 265 0.0 0.0 0.00 0.00 0.00 70 1012.3
20260504021839 7 263 0.0 0.0 0.00 0.00 0.00 69 1012.3
20260504021337 7 266 0.0 0.0 0.00 0.00 0.00 69 1012.4
20260504020834 7 268 0.0 0.0 0.00 0.00 0.00 69 1012.2
20260504020331 7 263 0.0 0.0 0.00 0.00 0.00 67 1012.1
20260504015826 8 264 0.0 0.0 0.00 0.00 0.00 67 1012.2
20260504015323 8 276 0.0 0.0 0.00 0.00 0.00 65 1012.2
20260504014819 8 255 0.0 0.0 0.00 0.00 0.00 69 1011.9
20260504014315 8 256 0.0 0.0 0.00 0.00 0.00 68 1012.0
20260504013813 8 257 0.0 0.0 0.00 0.00 0.00 65 1012.1
20260504013311 8 259 0.0 0.0 0.00 0.00 0.00 65 1012.0
20260504012807 8 249 0.0 0.0 0.00 0.00 0.00 64 1012.1
20260504012305 9 257 0.0 0.0 0.00 0.00 0.00 61 1012.3
20260504011802 8 257 0.0 0.0 0.00 0.00 0.00 62 1012.1
20260504011258 9 253 0.0 0.0 0.00 0.00 0.00 62 1012.1
20260504010754 9 252 0.0 0.0 0.00 0.00 0.00 61 1012.2
20260504010250 9 251 0.0 0.0 0.00 0.00 0.00 62 1012.3
20260504005747 9 252 0.0 0.0 0.00 0.00 0.00 63 1012.0
20260504005244 10 252 0.0 0.0 0.00 0.00 0.00 61 1011.9
20260504004742 10 252 0.0 0.0 0.00 0.00 0.00 58 1012.1
20260504004239 10 253 0.0 0.0 0.00 0.00 0.00 56 1011.8
20260504003735 10 263 0.0 0.0 0.00 0.00 0.00 56 1011.8
20260504003232 10 279 0.0 0.0 0.00 0.00 0.00 53 1011.6
20260504002729 11 254 0.0 0.0 0.00 0.00 0.00 56 1012.0
20260504002225 11 237 0.0 0.0 0.00 0.00 0.00 53 1011.6
20260504001724 12 241 0.0 0.0 0.00 0.00 0.00 47 1011.9
20260504001220 12 238 0.0 0.0 0.00 0.00 0.00 51 1011.8
20260504000717 12 259 0.0 0.0 0.00 0.00 0.00 45 1012.0
20260504000214 12 217 0.0 0.0 0.00 0.00 0.00 43 1012.0
20260503235712 12 227 0.0 0.0 0.00 0.00 0.00 44 1011.9
20260503235209 12 295 0.0 0.0 0.00 0.00 0.00 43 1012.0
20260503234707 12 325 0.0 0.0 0.00 0.00 0.00 43 1011.8
20260503234205 13 236 0.0 0.0 0.00 0.00 0.00 41 1011.9
20260503233701 13 262 0.0 0.0 0.00 0.00 0.00 42 1011.9
20260503233157 13 216 0.0 0.0 0.00 0.00 0.00 42 1012.0
20260503232654 13 239 0.0 0.0 0.00 0.00 0.00 43 1012.0
20260503232151 13 252 0.0 0.0 0.00 0.00 0.00 41 1012.0
20260503231644 13 255 0.0 0.0 0.00 0.00 0.00 40 1012.0
20260503231140 13 151 3.2 4.8 0.00 0.00 0.00 39 1012.0
20260503230637 14 21 0.0 1.6 0.00 0.00 0.00 38 1012.1
20260503230134 14 293 1.6 3.2 0.00 0.00 0.00 40 1012.1
20260503225632 15 246 0.0 0.0 0.00 0.00 0.00 38 1012.0
20260503225131 14 213 0.0 1.6 0.00 0.00 0.00 38 1012.0
20260503224629 15 124 0.0 1.6 0.00 0.00 0.00 39 1012.1
20260503224127 15 130 3.2 4.8 0.00 0.00 0.00 37 1012.2
20260503223625 15 57 3.2 4.8 0.00 0.00 0.00 36 1012.1
20260503223120 15 337 1.6 3.2 0.00 0.00 0.00 37 1012.2
20260503222618 15 327 4.8 4.8 0.00 0.00 0.00 37 1012.2
20260503222116 15 19 9.7 12.9 0.00 0.00 0.00 37 1012.1
20260503221614 15 286 3.2 3.2 0.00 0.00 0.00 38 1012.2
20260503221111 15 37 3.2 4.8 0.00 0.00 0.00 37 1012.1
20260503220608 15 223 0.0 0.0 0.00 0.00 0.00 37 1012.1
20260503220104 15 338 4.8 6.4 0.00 0.00 0.00 37 1012.2
20260503215601 15 25 6.4 9.7 0.00 0.00 0.00 37 1012.0
20260503215058 15 256 0.0 0.0 0.00 0.00 0.00 37 1012.3
20260503214556 15 222 1.6 3.2 0.00 0.00 0.00 36 1012.2
20260503214052 15 310 4.8 4.8 0.00 0.00 0.00 37 1012.2
20260503213551 15 353 0.0 1.6 0.00 0.00 0.00 38 1011.9
20260503213047 15 358 4.8 4.8 0.00 0.00 0.00 39 1012.2
20260503212545 15 283 1.6 3.2 0.00 0.00 0.00 38 1011.9
20260503212042 15 117 12.9 14.5 0.00 0.00 0.00 37 1012.1
20260503211539 15 338 3.2 4.8 0.00 0.00 0.00 37 1012.3
20260503211034 15 350 4.8 4.8 0.00 0.00 0.00 37 1012.1
20260503210532 15 326 1.6 1.6 0.00 0.00 0.00 36 1012.3
20260503210027 15 79 1.6 6.4 0.00 0.00 0.00 36 1012.3
20260503205524 15 241 3.2 4.8 0.00 0.00 0.00 35 1012.3
20260503205021 15 157 4.8 4.8 0.00 0.00 0.00 38 1012.3
20260503204518 15 33 1.6 1.6 0.00 0.00 0.00 36 1012.4
20260503204015 15 178 0.0 1.6 0.00 0.00 0.00 37 1012.6
20260503203512 15 315 6.4 6.4 0.00 0.00 0.00 37 1012.5
20260503203009 15 144 6.4 6.4 0.00 0.00 0.00 35 1012.4
20260503202506 15 197 3.2 6.4 0.00 0.00 0.00 39 1012.9
20260503202005 14 32 4.8 6.4 0.00 0.00 0.00 39 1012.9
20260503201503 15 339 4.8 6.4 0.00 0.00 0.00 40 1012.6
20260503200959 14 192 1.6 1.6 0.00 0.00 0.00 38 1012.9
20260503200455 14 272 1.6 4.8 0.00 0.00 0.00 38 1013.1
20260503195952 15 341 6.4 9.7 0.00 0.00 0.00 39 1013.1
20260503195450 15 346 4.8 6.4 0.00 0.00 0.00 37 1013.3
20260503194945 15 13 3.2 4.8 0.00 0.00 0.00 36 1013.4
20260503194443 15 338 1.6 3.2 0.00 0.00 0.00 36 1013.4
20260503193938 15 43 0.0 1.6 0.00 0.00 0.00 40 1013.5
20260503193434 15 311 3.2 3.2 0.00 0.00 0.00 41 1013.6
20260503192930 15 261 1.6 3.2 0.00 0.00 0.00 38 1013.7
20260503192426 15 294 3.2 4.8 0.00 0.00 0.00 38 1013.7
20260503191922 15 99 6.4 12.9 0.00 0.00 0.00 37 1013.9
20260503191420 15 287 0.0 0.0 0.00 0.00 0.00 39 1013.8
20260503190916 14 268 3.2 3.2 0.00 0.00 0.00 40 1014.0
20260503190414 14 265 3.2 3.2 0.00 0.00 0.00 40 1014.0
20260503185910 15 273 0.0 0.0 0.00 0.00 0.00 45 1014.1
20260503185407 15 2 3.2 4.8 0.00 0.00 0.00 39 1014.0
20260503184906 14 322 6.4 9.7 0.00 0.00 0.00 39 1014.1
20260503184403 14 86 6.4 9.7 0.00 0.00 0.00 39 1014.1
20260503183859 14 142 4.8 6.4 0.00 0.00 0.00 39 1014.2
20260503183355 14 1 0.0 0.0 0.00 0.00 0.00 43 1014.4
20260503182853 15 343 3.2 3.2 0.00 0.00 0.00 40 1014.5
20260503182352 14 333 3.2 9.7 0.00 0.00 0.00 44 1014.3
20260503181848 13 247 1.6 1.6 0.00 0.00 0.00 40 1014.3
20260503181345 13 316 6.4 9.7 0.00 0.00 0.00 41 1014.4
20260503180842 13 5 1.6 3.2 0.00 0.00 0.00 42 1014.5
20260503180340 13 336 6.4 9.7 0.00 0.00 0.00 41 1014.5
20260503175836 13 338 4.8 9.7 0.00 0.00 0.00 44 1014.8
20260503175334 13 293 1.6 3.2 0.00 0.00 0.00 43 1014.7
20260503174834 12 219 1.6 4.8 0.00 0.00 0.00 50 1014.8
20260503174333 13 307 1.6 3.2 0.00 0.00 0.00 43 1014.8
20260503173828 13 269 3.2 3.2 0.00 0.00 0.00 42 1015.0
20260503173325 13 267 0.0 1.6 0.00 0.00 0.00 45 1014.8
20260503172821 13 269 1.6 3.2 0.00 0.00 0.00 44 1015.0
20260503172319 12 285 1.6 3.2 0.00 0.00 0.00 46 1015.0
20260503171815 12 347 1.6 3.2 0.00 0.00 0.00 43 1015.0
20260503171312 13 288 1.6 3.2 0.00 0.00 0.00 41 1015.0
20260503170809 12 228 1.6 3.2 0.00 0.00 0.00 44 1015.4
20260503170306 12 301 1.6 3.2 0.00 0.00 0.00 45 1015.1
20260503150658 9 121 9.7 9.7 0.00 0.00 0.00 52 1016.4
20260503150154 10 330 6.4 9.7 0.00 0.00 0.00 51 1016.4
20260503140118 7 4 4.8 6.4 0.00 0.00 0.00 66 1016.6
20260503131048 5 277 0.0 0.0 0.00 0.00 0.00 79 1016.5
20260503130545 5 22 0.0 1.6 0.00 0.00 0.00 81 1016.6
20260503110435 0 247 0.0 0.0 0.00 0.00 0.00 99 1015.5
20260503090326 0 256 0.0 0.0 0.00 0.00 0.00 99 1014.5
20260503081254 0 259 0.0 0.0 0.00 0.00 0.00 99 1014.5
20260503080749 0 260 0.0 0.0 0.00 0.00 0.00 98 1014.4
20260503080247 0 261 0.0 0.0 0.00 0.00 0.00 98 1014.3
20260503072724 0 261 0.0 0.0 0.00 0.00 0.00 97 1013.9
20260503072220 0 257 0.0 0.0 0.00 0.00 0.00 97 1013.9
20260503071717 0 245 0.0 0.0 0.00 0.00 0.00 97 1014.0
20260503071214 1 244 0.0 0.0 0.00 0.00 0.00 97 1013.8
20260503070710 1 244 0.0 0.0 0.00 0.00 0.00 97 1014.1
20260503070209 1 243 0.0 0.0 0.00 0.00 0.00 97 1014.0